Location: Boulder, CO
(40.0083°N, 105.2472°W)
Time: 14:18:01
(UTC-06:00)

SORCE - Visible Passes

Search period start: 30 September 2016 00:00
Search period end: 10 October 2016 00:00
Orbit: 587 x 618 km, 40.0° (Epoch: 30 September)

Date Brightness Start Highest point End Pass type
(mag) Time Alt. Az. Time Alt. Az. Time Alt. Az.
30 Sep 8.2 04:03:43 23° E 04:03:43 23° E 04:05:28 10° E visible
30 Sep 6.0 05:40:26 27° W 05:42:51 70° SSW 05:47:19 10° ESE visible
01 Oct 7.8 04:14:28 28° E 04:14:28 28° E 04:16:40 10° E visible
01 Oct 6.3 05:51:12 21° W 05:53:56 52° SSW 05:58:18 10° SE visible
02 Oct 7.5 04:25:18 33° ESE 04:25:18 33° ESE 04:27:50 10° ESE visible
02 Oct 6.8 06:02:02 17° W 06:04:59 35° SSW 06:09:04 10° SE visible
03 Oct 7.3 04:36:13 35° SE 04:36:13 35° SE 04:38:55 10° ESE visible
03 Oct 7.4 06:12:57 13° WSW 06:15:55 23° SSW 06:19:28 10° SSE visible
04 Oct 7.3 04:47:13 31° SSE 04:47:13 31° SSE 04:49:52 10° SE visible
04 Oct 8.0 06:24:24 10° WSW 06:26:47 14° SW 06:29:08 10° S visible
05 Oct 7.6 04:58:20 24° SSE 04:58:20 24° SSE 05:00:33 10° SE visible
06 Oct 8.1 05:09:33 15° S 05:09:33 15° S 05:10:49 10° SSE visible
